Date String (YYYY-MM-DD hh:mm:ss) UTC,Instrument flags,Ambient pressure (hPa),Sample flow (lpm),Bypass flow (lpm),Sample temperature (°C),Ambient temperature (°C),ASC tube jacket temperature (°C),LED temperature (°C),Box temperature (°C),Sample RH (%),Span deviation,Mass concentration (μg/m³),Mass concentration (μg/m³),Mass concentration (μg/m³)
DateTimeUTC,F1_M11,P_M11,Q1_M11,Q2_M11,T1_M11,T2_M11,T3_M11,T4_M11,T5_M11,U1_M11,ZSPAN_M11,X0_M11,X2_M11,X1_M11
2022-09-06 20:00:00,,0831.3,5.01,0.00,29.4,27.7,00.0,38.1,31.3,16.6,0003.9,0031.38,0021.90,0020.56
2022-09-06 20:01:00,,0831.3,4.98,0.00,29.5,28.0,00.0,38.1,31.4,15.9,0003.6,0030.88,0021.82,0020.54
2022-09-06 20:02:00,,0831.2,5.02,0.00,29.5,28.3,00.0,38.1,31.5,15.8,0003.5,0030.70,0021.88,0020.60
2022-09-06 20:03:00,,0831.2,4.98,0.00,29.6,28.1,00.0,38.1,31.5,16.1,0003.8,0029.68,0021.92,0020.63
2022-09-06 20:04:00,,0831.2,5.01,0.00,29.5,27.0,00.0,38.1,31.3,16.0,0004.0,0029.76,0021.95,0020.64
2022-09-06 20:05:00,,0831.2,4.99,0.00,29.5,26.8,00.0,38.1,31.3,16.0,0003.9,0030.77,0022.00,0020.70
2022-09-06 20:06:00,,0831.2,5.00,0.00,29.5,27.1,00.0,38.1,31.3,15.8,0003.8,0032.22,0022.08,0020.74
2022-09-06 20:07:00,,0831.1,5.00,0.00,29.5,27.4,00.0,38.1,31.2,16.1,0003.6,0033.14,0022.16,0020.77
2022-09-06 20:08:00,,0831.2,5.00,0.00,29.5,27.7,00.0,38.1,31.3,16.4,0003.5,0032.85,0022.21,0020.78
2022-09-06 20:09:00,,0831.2,5.00,0.00,29.5,28.0,00.0,38.1,31.3,16.4,0003.6,0033.07,0022.22,0020.78
2022-09-06 20:10:00,,0831.2,4.99,0.00,29.5,28.2,00.0,38.1,31.4,15.9,0003.4,0033.35,0022.22,0020.77
2022-09-06 20:11:00,,0831.2,5.00,0.00,29.6,27.4,00.0,38.1,31.4,15.8,0003.2,0034.30,0022.31,0020.82
2022-09-06 20:12:00,,0831.2,5.00,0.00,29.5,26.6,00.0,38.1,31.3,15.4,0003.2,0034.66,0022.38,0020.85
2022-09-06 20:13:00,,0831.2,5.00,0.00,29.5,26.8,00.0,38.1,31.3,15.0,0002.8,0035.19,0022.39,0020.85
2022-09-06 20:14:00,,0831.1,5.00,0.00,29.5,27.1,00.0,38.1,31.2,14.8,0002.4,0035.39,0022.39,0020.89
2022-09-06 20:15:00,,0831.2,5.00,0.00,29.4,27.4,00.0,38.1,31.2,14.0,0002.2,0035.64,0022.49,0020.96
2022-09-06 20:16:00,,0831.2,5.01,0.00,29.5,27.7,00.0,38.1,31.3,13.9,0002.3,0035.18,0022.57,0021.04
2022-09-06 20:17:00,,0831.2,4.99,0.00,29.5,28.0,00.0,38.1,31.3,13.4,0002.2,0034.39,0022.69,0021.16
2022-09-06 20:18:00,,0831.1,4.99,0.00,29.5,27.8,00.0,38.1,31.4,13.0,0002.3,0033.12,0022.76,0021.32
2022-09-06 20:19:00,,0831.1,5.00,0.00,29.5,26.8,00.0,38.1,31.2,13.6,0001.8,0033.23,0022.87,0021.49
2022-09-06 20:20:00,,0831.2,5.01,0.00,29.5,26.7,00.0,38.1,31.3,14.3,0001.5,0033.41,0023.07,0021.66
2022-09-06 20:21:00,,0831.2,4.99,0.00,29.4,27.0,00.0,38.0,31.2,14.8,0001.6,0034.14,0023.23,0021.79
2022-09-06 20:22:00,,0831.2,5.00,0.00,29.4,27.2,00.0,38.0,31.1,15.1,0001.3,0033.41,0023.31,0021.88
2022-09-06 20:23:00,,0831.2,5.02,0.00,29.4,27.6,00.0,38.0,31.2,15.5,0001.2,0033.62,0023.46,0021.97
2022-09-06 20:24:00,,0831.2,4.98,0.00,29.4,27.9,00.0,38.0,31.3,15.4,0001.7,0032.89,0023.53,0022.04
2022-09-06 20:25:00,,0831.2,5.00,0.00,29.5,28.0,00.0,38.1,31.4,15.1,0002.2,0033.31,0023.54,0022.07
2022-09-06 20:26:00,,0831.2,4.98,0.00,29.5,27.2,00.0,38.1,31.3,15.1,0002.3,0033.58,0023.57,0022.08
2022-09-06 20:27:00,,0831.2,5.00,0.00,29.4,26.6,00.0,38.1,31.2,15.4,0002.0,0033.44,0023.53,0022.04
2022-09-06 20:28:00,,0831.2,5.01,0.00,29.4,26.8,00.0,38.0,31.2,15.6,0002.1,0034.11,0023.43,0021.93
2022-09-06 20:29:00,,0831.2,4.99,0.00,29.4,27.1,00.0,38.0,31.2,15.8,0001.9,0034.49,0023.35,0021.79
2022-09-06 20:30:00,,0831.2,5.00,0.00,29.4,27.4,00.0,38.0,31.1,16.2,0002.0,0035.10,0023.25,0021.65
2022-09-06 20:31:00,,0831.2,5.01,0.00,29.4,27.8,00.0,38.0,31.2,16.1,0002.1,0035.42,0023.02,0021.44
2022-09-06 20:32:00,,0831.2,4.98,0.00,29.5,28.1,00.0,38.0,31.3,16.1,0002.3,0035.32,0022.86,0021.26
2022-09-06 20:33:00,,0831.1,5.01,0.00,29.5,28.2,00.0,38.0,31.4,16.1,0002.6,0035.65,0022.70,0021.10
2022-09-06 20:34:00,,0831.1,5.00,0.00,29.5,27.4,00.0,38.1,31.3,15.7,0003.2,0035.91,0022.49,0020.95
2022-09-06 20:35:00,,0831.0,5.00,0.00,29.5,26.7,00.0,38.1,31.2,15.7,0003.1,0035.31,0022.27,0020.82
2022-09-06 20:36:00,,0831.0,5.00,0.00,29.4,26.9,00.0,38.0,31.3,17.1,0002.8,0035.44,0022.17,0020.66
2022-09-06 20:37:00,,0831.0,5.01,0.00,29.4,27.2,00.0,38.0,31.2,17.5,0002.6,0035.73,0022.01,0020.48
2022-09-06 20:38:00,,0831.0,5.00,0.00,29.4,27.5,00.0,38.0,31.2,17.4,0002.3,0035.51,0021.86,0020.33
2022-09-06 20:39:00,,0831.0,5.01,0.00,29.4,27.8,00.0,38.0,31.3,17.4,0002.2,0034.12,0021.74,0020.21
2022-09-06 20:40:00,,0831.1,4.98,0.00,29.5,28.1,00.0,38.0,31.4,17.2,0002.1,0035.26,0021.64,0020.10
2022-09-06 20:41:00,,0831.1,5.00,0.00,29.5,27.8,00.0,38.1,31.4,17.3,0002.2,0035.46,0021.53,0019.98
2022-09-06 20:42:00,,0831.0,5.01,0.00,29.5,26.8,00.0,38.1,31.3,17.8,0002.0,0035.85,0021.51,0019.95
2022-09-06 20:43:00,,0831.0,5.00,0.00,29.5,26.7,00.0,38.0,31.3,17.4,0002.1,0035.99,0021.46,0019.94
2022-09-06 20:44:00,,0831.0,4.99,0.00,29.4,27.0,00.0,38.0,31.3,17.3,0002.3,0036.54,0021.47,0019.93
2022-09-06 20:45:00,,0830.9,5.01,0.00,29.4,27.3,00.0,38.0,31.2,17.4,0002.2,0036.13,0021.49,0019.92
2022-09-06 20:46:00,,0830.9,5.01,0.00,29.4,27.6,00.0,38.0,31.2,17.5,0002.1,0037.52,0021.56,0019.89
2022-09-06 20:47:00,,0831.0,5.01,0.00,29.5,27.9,00.0,38.0,31.3,17.5,0002.1,0038.45,0021.59,0019.90
2022-09-06 20:48:00,,0830.9,4.99,0.00,29.5,28.2,00.0,38.0,31.4,17.3,0002.3,0037.97,0021.52,0019.91
2022-09-06 20:49:00,,0830.9,5.00,0.00,29.5,27.9,00.0,38.1,31.4,16.4,0002.3,0037.64,0021.49,0019.93
2022-09-06 20:50:00,,0830.9,4.99,0.00,29.5,26.9,00.0,38.1,31.3,16.3,0002.5,0038.17,0021.57,0019.99
2022-09-06 20:51:00,,0830.9,5.00,0.00,29.5,26.8,00.0,38.0,31.3,16.0,0002.9,0037.28,0021.63,0020.08
2022-09-06 20:52:00,,0830.9,5.00,0.00,29.5,27.1,00.0,38.0,31.3,15.2,0003.1,0037.21,0021.76,0020.22
2022-09-06 20:53:00,,0830.9,5.00,0.00,29.4,27.4,00.0,38.0,31.2,15.1,0003.2,0037.53,0021.94,0020.37
2022-09-06 20:54:00,,0830.9,5.01,0.00,29.4,27.6,00.0,38.0,31.2,14.3,0003.5,0037.20,0022.14,0020.53
2022-09-06 20:55:00,,0830.9,4.98,0.00,29.5,27.9,00.0,38.0,31.3,14.9,0003.5,0036.59,0022.29,0020.71
2022-09-06 20:56:00,,0830.9,5.01,0.00,29.5,28.1,00.0,38.0,31.4,14.7,0003.4,0037.51,0022.42,0020.85
2022-09-06 20:57:00,,0830.9,5.00,0.00,29.5,27.2,00.0,38.1,31.3,14.6,0003.5,0036.72,0022.57,0021.02
2022-09-06 20:58:00,,0830.9,5.01,0.00,29.5,26.6,00.0,38.0,31.2,15.5,0003.5,0036.41,0022.67,0021.14
2022-09-06 20:59:00,,0830.9,5.00,0.00,29.4,26.9,00.0,38.0,31.3,15.2,0003.5,0036.16,0022.88,0021.28
